When you browse on this site, cookies collect data to enhance your experience and personalize the content and advertising you see.
Visit our Privacy Policy to learn more. By continuing to use the site, you agree to this use of cookies and data.
  • In Austria
  • List of Countries
  • For 7 days
  • Water Temperature
  • Weather Map
  • News
  • Weather Widgets
  • user-avatar
    Login

    Hourly Weather Corfu

    Today, 24 January, Friday

    Time Temperature Precipitation Wind Pressure Humidity
    00:00 +8°C° 0 mm 4 mps 771 mmHg 56%
    01:00 +7°C° 0 mm 4 mps 771 mmHg 55%
    02:00 +7°C° 0 mm 4 mps 771 mmHg 55%
    03:00 +7°C° 0 mm 4 mps 772 mmHg 55%
    04:00 +7°C° 0 mm 4 mps 772 mmHg 54%
    05:00 +7°C° 0 mm 4 mps 772 mmHg 56%
    06:00 +6°C° 0 mm 5 mps 772 mmHg 58%
    07:00 +6°C° 0 mm 5 mps 772 mmHg 60%
    08:00 +8°C° 0 mm 5 mps 773 mmHg 60%
    09:00 +9°C° 0 mm 5 mps 773 mmHg 61%
    10:00 +12°C° 0 mm 5 mps 773 mmHg 61%
    11:00 +12°C° 0 mm 5 mps 773 mmHg 64%
    12:00 +13°C° 0 mm 5 mps 772 mmHg 67%
    13:00 +13°C° 0 mm 5 mps 772 mmHg 69%
    14:00 +13°C° 0.1 mm 4 mps 772 mmHg 72%
    15:00 +13°C° 0.1 mm 4 mps 772 mmHg 75%
    16:00 +12°C° 0.1 mm 4 mps 772 mmHg 78%
    17:00 +12°C° 0.1 mm 3 mps 772 mmHg 80%
    18:00 +11°C° 0.1 mm 3 mps 772 mmHg 81%
    19:00 +11°C° 0.1 mm 3 mps 772 mmHg 83%
    20:00 +11°C° 0 mm 3 mps 772 mmHg 83%
    21:00 +11°C° 0 mm 3 mps 772 mmHg 82%
    22:00 +10°C° 0 mm 3 mps 772 mmHg 82%
    23:00 +10°C° 0 mm 3 mps 771 mmHg 81%

    Tomorrow, 25 January, Saturday

    Time Temperature Precipitation Wind Pressure Humidity
    00:00 +10°C° 0 mm 2 mps 771 mmHg 81%
    01:00 +10°C° 0 mm 2 mps 771 mmHg 80%
    02:00 +10°C° 0.1 mm 2 mps 770 mmHg 81%
    03:00 +10°C° 0.1 mm 2 mps 770 mmHg 81%
    04:00 +12°C° 0.1 mm 2 mps 770 mmHg 81%
    05:00 +11°C° 0.1 mm 3 mps 770 mmHg 81%
    06:00 +11°C° 0.1 mm 3 mps 770 mmHg 81%
    07:00 +11°C° 0.1 mm 3 mps 770 mmHg 81%
    08:00 +11°C° 0 mm 3 mps 770 mmHg 79%
    09:00 +12°C° 0 mm 3 mps 770 mmHg 76%
    10:00 +13°C° 0 mm 3 mps 770 mmHg 74%
    11:00 +14°C° 0.1 mm 3 mps 769 mmHg 73%
    12:00 +14°C° 0.1 mm 3 mps 769 mmHg 73%
    13:00 +14°C° 0.1 mm 3 mps 769 mmHg 72%
    14:00 +14°C° 0.1 mm 3 mps 768 mmHg 74%
    15:00 +13°C° 0.1 mm 3 mps 768 mmHg 77%
    16:00 +13°C° 0.1 mm 3 mps 768 mmHg 79%
    17:00 +13°C° 0 mm 3 mps 768 mmHg 81%
    18:00 +12°C° 0 mm 3 mps 768 mmHg 82%
    19:00 +12°C° 0 mm 4 mps 768 mmHg 84%
    20:00 +11°C° 0 mm 4 mps 768 mmHg 83%
    21:00 +11°C° 0 mm 4 mps 768 mmHg 83%
    22:00 +11°C° 0 mm 4 mps 768 mmHg 83%
    23:00 +11°C° 0 mm 4 mps 768 mmHg 83%

    Day after tomorrow, 26 January, Sunday

    Time Temperature Precipitation Wind Pressure Humidity
    00:00 +11°C° 0 mm 4 mps 768 mmHg 82%
    01:00 +11°C° 0 mm 4 mps 768 mmHg 82%
    02:00 +11°C° 0 mm 4 mps 767 mmHg 82%
    03:00 +11°C° 0 mm 4 mps 767 mmHg 81%
    04:00 +10°C° 0 mm 5 mps 767 mmHg 80%
    05:00 +10°C° 0 mm 5 mps 767 mmHg 80%
    06:00 +10°C° 0 mm 5 mps 767 mmHg 79%
    07:00 +10°C° 0 mm 5 mps 767 mmHg 78%
    08:00 +10°C° 0 mm 5 mps 767 mmHg 76%
    09:00 +12°C° 0 mm 5 mps 767 mmHg 74%
    10:00 +13°C° 0 mm 5 mps 767 mmHg 72%
    11:00 +13°C° 0 mm 5 mps 766 mmHg 72%
    12:00 +13°C° 0 mm 5 mps 765 mmHg 71%
    13:00 +14°C° 0 mm 5 mps 765 mmHg 71%
    14:00 +14°C° 0 mm 5 mps 764 mmHg 72%
    15:00 +13°C° 0 mm 5 mps 764 mmHg 73%
    16:00 +13°C° 0 mm 5 mps 764 mmHg 74%
    17:00 +13°C° 0.1 mm 5 mps 764 mmHg 75%
    18:00 +13°C° 0.1 mm 5 mps 764 mmHg 77%
    19:00 +13°C° 0.1 mm 5 mps 764 mmHg 78%
    20:00 +13°C° 0.3 mm 5 mps 764 mmHg 80%
    21:00 +13°C° 0.3 mm 5 mps 764 mmHg 83%
    22:00 +13°C° 0.3 mm 4 mps 764 mmHg 85%
    23:00 +13°C° 0.7 mm 4 mps 764 mmHg 86%

    27 January, Monday

    Time Temperature Precipitation Wind Pressure Humidity
    00:00 +13°C° 0.7 mm 4 mps 764 mmHg 87%
    01:00 +13°C° 0.7 mm 4 mps 763 mmHg 89%
    02:00 +13°C° 1.4 mm 4 mps 763 mmHg 90%
    03:00 +12°C° 1.4 mm 4 mps 763 mmHg 91%
    04:00 +12°C° 1.4 mm 4 mps 763 mmHg 92%
    05:00 +12°C° 2.3 mm 3 mps 763 mmHg 93%
    06:00 +13°C° 2.3 mm 2 mps 763 mmHg 94%
    07:00 +12°C° 2.3 mm 1 mps 763 mmHg 94%
    08:00 +12°C° 2.4 mm 2 mps 763 mmHg 94%
    09:00 +11°C° 2.4 mm 3 mps 763 mmHg 94%
    10:00 +11°C° 2.4 mm 4 mps 763 mmHg 94%
    11:00 +11°C° 1.5 mm 3 mps 762 mmHg 91%
    12:00 +11°C° 1.5 mm 3 mps 762 mmHg 89%
    13:00 +11°C° 1.5 mm 3 mps 762 mmHg 86%
    14:00 +12°C° 0.1 mm 3 mps 762 mmHg 85%
    15:00 +12°C° 0.1 mm 3 mps 762 mmHg 84%
    16:00 +12°C° 0.1 mm 4 mps 762 mmHg 82%
    17:00 +11°C° 0 mm 4 mps 762 mmHg 82%
    18:00 +11°C° 0 mm 3 mps 762 mmHg 82%
    19:00 +10°C° 0 mm 3 mps 762 mmHg 81%
    20:00 +10°C° 0 mm 3 mps 763 mmHg 81%
    21:00 +10°C° 0 mm 3 mps 763 mmHg 81%
    22:00 +10°C° 0 mm 3 mps 764 mmHg 82%
    23:00 +8°C° 0 mm 4 mps 763 mmHg 82%

    28 January, Tuesday

    Time Temperature Precipitation Wind Pressure Humidity
    00:00 +8°C° 0 mm 4 mps 763 mmHg 82%
    01:00 +8°C° 0 mm 4 mps 763 mmHg 83%
    02:00 +8°C° 0 mm 4 mps 763 mmHg 82%
    03:00 +8°C° 0 mm 4 mps 763 mmHg 82%
    04:00 +8°C° 0 mm 4 mps 763 mmHg 82%
    05:00 +8°C° 0 mm 4 mps 764 mmHg 82%
    06:00 +8°C° 0 mm 4 mps 764 mmHg 82%
    07:00 +7°C° 0 mm 4 mps 764 mmHg 82%
    08:00 +10°C° 0 mm 3 mps 764 mmHg 78%
    09:00 +11°C° 0 mm 3 mps 764 mmHg 74%
    10:00 +12°C° 0 mm 3 mps 764 mmHg 70%
    11:00 +13°C° 0 mm 3 mps 764 mmHg 69%
    12:00 +13°C° 0 mm 3 mps 764 mmHg 68%
    13:00 +14°C° 0 mm 3 mps 763 mmHg 66%
    14:00 +13°C° 0 mm 3 mps 763 mmHg 69%
    15:00 +14°C° 0 mm 2 mps 763 mmHg 72%
    16:00 +14°C° 0 mm 2 mps 763 mmHg 75%
    17:00 +13°C° 0 mm 1 mps 764 mmHg 77%
    18:00 +12°C° 0 mm 1 mps 764 mmHg 80%
    19:00 +11°C° 0 mm 1 mps 764 mmHg 82%
    20:00 +11°C° 0 mm 1 mps 764 mmHg 83%
    21:00 +11°C° 0 mm 1 mps 764 mmHg 83%
    22:00 +11°C° 0 mm 1 mps 764 mmHg 84%
    23:00 +10°C° 0 mm 2 mps 764 mmHg 84%

    29 January, Wednesday

    Time Temperature Precipitation Wind Pressure Humidity
    00:00 +10°C° 0 mm 2 mps 764 mmHg 84%
    01:00 +9°C° 0 mm 3 mps 764 mmHg 85%
    02:00 +10°C° 0 mm 3 mps 764 mmHg 84%
    03:00 +10°C° 0 mm 3 mps 764 mmHg 83%
    04:00 +10°C° 0 mm 3 mps 764 mmHg 82%
    05:00 +10°C° 0 mm 3 mps 764 mmHg 82%
    06:00 +10°C° 0 mm 3 mps 764 mmHg 83%
    07:00 +10°C° 0 mm 3 mps 764 mmHg 84%
    08:00 +11°C° 0.1 mm 4 mps 764 mmHg 83%
    09:00 +12°C° 0.1 mm 4 mps 764 mmHg 82%
    10:00 +12°C° 0.1 mm 4 mps 764 mmHg 81%
    11:00 +13°C° 0.1 mm 4 mps 764 mmHg 79%
    12:00 +14°C° 0.1 mm 4 mps 763 mmHg 78%
    13:00 +14°C° 0.1 mm 4 mps 763 mmHg 76%
    14:00 +14°C° 0.1 mm 4 mps 763 mmHg 78%
    15:00 +14°C° 0.1 mm 4 mps 763 mmHg 81%
    16:00 +13°C° 0.1 mm 4 mps 763 mmHg 83%
    17:00 +13°C° 0.1 mm 4 mps 763 mmHg 83%
    18:00 +13°C° 0.1 mm 4 mps 763 mmHg 84%
    19:00 +12°C° 0.1 mm 3 mps 763 mmHg 85%
    20:00 +12°C° 0.1 mm 3 mps 763 mmHg 85%
    21:00 +13°C° 0.1 mm 3 mps 763 mmHg 86%
    22:00 +13°C° 0.1 mm 3 mps 763 mmHg 86%
    23:00 +13°C° 0.1 mm 3 mps 763 mmHg 87%
    Show more